Regional Weather Roundup
Issued by NWS

Home | Current Version | Previous Version | Text Only | Print | Product List | Glossary Off
Versions: 1 2 3 4 5 6 7 8 9 10 11 12 13 14 15 16 17 18 19 20 21 22 23 24 25 26 27 28 29 30 31 32 33 34 35 36 37 38 39 40 41 42 43 44 45 46 47 48 49 50

000
ASUS43 KLOT 280703
RWRIL

ILLINOIS REGIONAL WEATHER ROUNDUP
NATIONAL WEATHER SERVICE CHICAGO/ROMEOVILLE IL
200 AM CDT SUN AUG 28 2016

NOTE: "FAIR" INDICATES FEW OR NO CLOUDS BELOW 12,000 FEET WITH NO
SIGNIFICANT WEATHER AND/OR OBSTRUCTIONS TO VISIBILITY.

* THESE STATIONS ARE NOT UNDER NWS QUALITY CONTROL. THEY ALSO MAY NOT
  REPORT WEATHER SUCH AS PRECIPITATION OR FOG.

ILZ001-002-007-009-015-016-024-280800-
NORTHWEST ILLINOIS

CITY           SKY/WX    TMP DP  RH WIND       PRES   REMARKS
MOLINE         PTCLDY    70  68  93 CALM      30.09S
STERLING*      MOCLDY    71  70  96 CALM      30.11R FOG
SAVANNA*       CLEAR     68  67  98 N5        30.11R
$$

ILZ003-004-008-010-011-017-018-280800-
NORTH CENTRAL ILLINOIS

CITY           SKY/WX    TMP DP  RH WIND       PRES   REMARKS
ROCKFORD       CLOUDY    69  67  93 CALM      30.12R
FREEPORT*      FOG       64  64  99 CALM      30.14R VSB 1/2
ROCHELLE*      CLOUDY    70  70  99 CALM      30.12R FOG
$$

ILZ005-006-012>014-019>023-280800-
NORTHEAST ILLINOIS

CITY           SKY/WX    TMP DP  RH WIND       PRES   REMARKS
CHICAGO-OHARE  MOCLDY    73  70  90 SW3       30.11R
CHICAGO-MIDWAY CLOUDY    77  71  82 CALM      30.10S
AURORA         CLOUDY    70  67  90 CALM      30.12R
LANSING*       CLOUDY    74  73  94 SW5       30.11S
JOLIET*        MOCLDY    75  74  95 CALM      30.11R
WAUKEGAN       CLOUDY    72  70  93 CALM      30.10S
DUPAGE AIRPORT CLOUDY    70  67  90 CALM      30.11R
KANKAKEE*      CLOUDY    72  71  94 CALM      30.12S
WHEELING       CLOUDY    73  69  87 CALM      30.12R
MORRIS*        CLOUDY    72  71  96 CALM      30.10R
ROMEOVILLE*    MOCLDY    71  71 100 CALM      30.12R
$$

LMZ740>746-280800-
SOUTHERN LAKE MICHIGAN

STATION/POSITION SKY/WX   TEMP    WIND        PRES    VSBY  WAVE
                          AIR SEA DIR/SP/G                  HT/PER
                          (F)     (DEG/KT/KT) (MB)    (MI)  (FT/S)
SOUTHERN BUOY              75 75  260/ 10/ 12 1018.2          1
WILMETTE HARBOR            72 70  300/  4/  4   N/A           0
HARRISON CRIB              78     220/  3/  3   N/A
BURNHAM HARBOR             76      CALM  /  4   N/A
CALUMET HARBOR             77     250/  2/  4 1018.8R
BURNS HARBOR               77     190/  6/ 14 1019.6R
MICHIGAN CITY              76     200/  7/  8   N/A
MICHIGAN CITY 6N           76 76  280/  4/  4   N/A           1
ST. JOSEPH                 76 75  210/  4/  6 1018.8R         1
$$

ILZ025>027-034>036-040-047-049-050-058-095>099-280800-
WEST-CENTRAL ILLINOIS

CITY           SKY/WX    TMP DP  RH WIND       PRES   REMARKS
QUINCY         CLEAR     73  71  93 S5        30.10S
GALESBURG*     PTCLDY    71  70  98 CALM      30.11S
MACOMB*        CLEAR     70  70  99 CALM      30.13R
JACKSONVILLE*  CLOUDY    74  71  90 CALM      30.10S
PITTSFIELD*    CLOUDY    72  71  95 CALM      30.12R
$$

ILZ028>032-037-038-041>044-048-051>054-059>061-280800-
CENTRAL ILLINOIS

CITY           SKY/WX    TMP DP  RH WIND       PRES   REMARKS
PONTIAC        CLOUDY    72  71  99 S5        30.12F
BLOOMINGTON    CLOUDY    72  68  87 SW6       30.13F
DECATUR        CLOUDY    73  70  90 CALM      30.12S
PEORIA         PTCLDY    73  73 100 SW5       30.10F
LACON*         CLEAR     71  70  96 CALM      30.09S
LINCOLN*       CLOUDY    72  72  99 CALM      30.12S
SPRINGFIELD    CLOUDY    77  73  87 CALM      30.11S
TAYLORVILLE    CLOUDY    72  72  99 CALM      30.11F
$$

ILZ033-039-045-046-055>057-062-063-280800-
EAST-CENTRAL ILLINOIS

CITY           SKY/WX    TMP DP  RH WIND       PRES   REMARKS
CHAMPAIGN      PTCLDY    71  68  90 E3        30.13F
RANTOUL*       MOCLDY    73  71  93 CALM      30.13S
MATTOON        PTCLDY    72  70  93 S3        30.11F
PARIS*         CLEAR     69  69 100 CALM      30.13F FOG
$$

ILZ079-100>102-280800-
SOUTHWEST ILLINOIS

CITY           SKY/WX    TMP DP  RH WIND       PRES   REMARKS
ALTON          CLOUDY    72  71  96 E3        30.10S
BELLEVILLE     PTCLDY    73  73 100 NE1       30.09S
CAHOKIA*       PTCLDY    73  70  90 CALM      30.09S
SPARTA*        CLEAR     73  72  96 CALM      30.11S
$$

ILZ064>066-069>071-074>076-080>082-084>086-088>090-092>094-280800-
SOUTH-CENTRAL ILLINOIS

CITY           SKY/WX    TMP DP  RH WIND       PRES   REMARKS
CARBONDALE     CLEAR     73  71  93 NW3       30.09F
EFFINGHAM*     CLEAR     70  70 100 CALM      30.13S FOG
MARION         CLEAR     75  75 100 CALM      30.10F FOG
MT. VERNON     CLEAR     72  66  83 NE3       30.11F
CENTRALIA*     FOG       71  71 100 CALM      30.10F VSB 1
SALEM*         CLEAR     75  72  90 CALM      30.11F
METROPOLIS*    CLEAR     73  73  98 CALM      30.10S FOG
$$

ILZ067-068-072-073-078-083-087-091-280800-
SOUTHEAST ILLINOIS

CITY           SKY/WX    TMP DP  RH WIND       PRES   REMARKS
LAWRENCEVILLE  CLEAR     73  73 100 SE6       30.11S
FLORA*         CLEAR     74  73  97 CALM      30.11S FOG
FAIRFIELD*     CLEAR     74  74 100 CALM      30.10S
HARRISBURG*    CLEAR     73  73 100 CALM      30.10S
ROBINSON*      CLEAR     69  68  99 CALM      30.12S FOG
CARMI*         CLEAR     73  73 100 CALM      30.10S FOG
$$

ABBREVIATIONS USED IN REMARKS
   TC - TEMPERATURE IN CELSIUS
  WCI - WIND CHILL INDEX
   HX - HEAT INDEX
  VSB - VISIBILITY
$$





USA.gov is the U.S. government's official web portal to all federal, state and local government web resources and services.